Location: Cuiry
(49.3858°N, 3.7708°E)
Time: 05:51:18
(UTC+00:00)

Cosmos 1697 Rocket - Pass Details

Date: 12 January 2026
Orbit: 830 x 844 km, 71.0° (Epoch: 18 February)

Event Time Altitude Azimuth Distance (km) Brightness Sun altitude
Rises 18:50:30 0° 334° (NNW) 3,406 6.1 -25.4°
Reaches altitude 10° 18:53:06 10° 341° (NNW) 2,470 5.3 -25.8°
Enters shadow 18:56:27 30° 8° (N) 1,463 3.8 -26.3°
